Flag for Venezuela Weather past 2 weeks in Maracaibo, Venezuela

Now
81 °F

Passing clouds.


Feels Like: 85 °F
Forecast: 78 / 95 °F
Wind: N/A

Location: Maracaibo-La Chinita

Current Time: Mar 27, 2015 at 12:02:03 AM

Latest Report: Mar 26, 2015 at 10:30 PM


Visibility: N/A

Pressure: 29.95 "Hg

Humidity: 74%

Dew point: 72 °F

Location of MaracaiboLocation

Historic Weather in Maracaibo — Graph

°F

Maracaibo temperature yesterday

Maximum temperature yesterday: 93 °F (at 1:30 PM)
Minimum temperature yesterday: 75 °F (at 4:30 AM)
Average temperature yesterday: 85 °F

Past Weeks' High & Low Weather Summary

 TemperatureHumidityPressure
High95 °F (Mar 23, 1:30 PM)94% (Mar 20, 4:30 AM)30.04 "Hg (Mar 20, 4:30 AM)
Low73 °F (Mar 22, 6:30 AM)49% (Mar 26, 2:30 PM)29.83 "Hg (Mar 12, 1:30 AM)
Average84 °F71%29.93 "Hg
* Reported Mar 12 1:30 AM — Mar 26 10:30 PM, Maracaibo, Weather by CustomWeather, © 2015

Note: Actual official high and low records may vary slightly from our data, if they occured in-between our weather recording intervals... More about our weather records

Advertising

Maracaibo weather history for previous 24 hours

 ConditionsComfort  
Time TempWeatherWind HumidityBarometerVisibility
10:30 PM
Thu, Mar 26
82 °FPassing clouds.N/A70%29.92 "HgN/A
9:30 PM82 °FPassing clouds.N/A70%29.92 "HgN/A
8:30 PM82 °FPassing clouds.N/A70%29.89 "HgN/A
7:30 PM82 °FPassing clouds.N/A70%29.89 "HgN/A
5:30 PM88 °FPassing clouds.N/A62%29.89 "HgN/A
4:30 PM91 °FPassing clouds.N/A52%29.89 "HgN/A
3:30 PM93 °FPassing clouds.N/A49%29.89 "HgN/A
2:30 PM93 °FPassing clouds.N/A49%29.92 "HgN/A
1:30 PM93 °FPassing clouds.N/A56%29.95 "HgN/A
12:30 PM91 °FPassing clouds.N/A59%29.98 "HgN/A
11:30 AM90 °FPassing clouds.N/A63%30.01 "HgN/A
10:30 AM86 °FPassing clouds.N/A66%29.98 "HgN/A
9:30 AM81 °FPassing clouds.N/A79%29.98 "HgN/A
8:30 AM77 °FPassing clouds.N/A94%29.92 "HgN/A
7:30 AM77 °FPassing clouds.N/A89%N/AN/A
4:30 AM75 °FPassing clouds.N/A83%29.92 "HgN/A
1:30 AM79 °FPassing clouds.N/A74%29.86 "HgN/A
Weather by CustomWeather, © 2015

See weather overviewHow to use our weather pages